TimeEST,TemperatureF,Dew PointF,Humidity,Sea Level PressureIn,VisibilityMPH,Wind Direction,Wind SpeedMPH,Gust SpeedMPH,PrecipitationIn,Events,Conditions,WindDirDegrees,DateUTC
12:51 AM,57.9,48.9,72,30.16,10.0,SSW,4.6,-,N/A,,Clear,200,2012-12-04 05:51:00
1:51 AM,57.0,48.0,72,30.17,10.0,SSW,4.6,-,N/A,,Clear,210,2012-12-04 06:51:00
2:51 AM,57.9,46.9,67,30.16,10.0,SSW,5.8,-,N/A,,Clear,200,2012-12-04 07:51:00
3:51 AM,57.0,46.9,69,30.16,10.0,SSW,3.5,-,N/A,,Clear,200,2012-12-04 08:51:00
4:51 AM,55.0,46.9,74,30.15,10.0,SSW,3.5,-,N/A,,Clear,210,2012-12-04 09:51:00
5:51 AM,55.0,46.9,74,30.15,10.0,South,5.8,-,N/A,,Clear,190,2012-12-04 10:51:00
6:51 AM,55.9,46.9,72,30.15,10.0,SSW,6.9,-,N/A,,Clear,200,2012-12-04 11:51:00
7:51 AM,55.9,46.9,72,30.16,10.0,SSW,6.9,-,N/A,,Mostly Cloudy,210,2012-12-04 12:51:00
8:51 AM,59.0,48.0,67,30.16,10.0,SSW,8.1,-,N/A,,Mostly Cloudy,210,2012-12-04 13:51:00
9:51 AM,61.0,48.9,64,30.16,10.0,SSW,9.2,-,N/A,,Overcast,200,2012-12-04 14:51:00
10:51 AM,64.0,50.0,60,30.16,10.0,SSW,10.4,-,N/A,,Overcast,210,2012-12-04 15:51:00
11:51 AM,64.0,53.1,67,30.13,10.0,SSW,5.8,-,0.00,,Overcast,210,2012-12-04 16:51:00
12:51 PM,64.0,54.0,70,30.10,10.0,SSW,5.8,-,0.00,,Overcast,200,2012-12-04 17:51:00
1:51 PM,64.0,55.0,73,30.08,7.0,SSW,5.8,-,0.01,Rain,Light Rain,210,2012-12-04 18:51:00
2:51 PM,66.9,54.0,63,30.06,10.0,SSW,8.1,-,0.00,,Mostly Cloudy,210,2012-12-04 19:51:00
3:51 PM,68.0,52.0,56,30.06,10.0,SSW,12.7,21.9,0.00,,Overcast,210,2012-12-04 20:51:00
4:51 PM,66.9,51.1,57,30.05,10.0,SW,6.9,-,N/A,,Overcast,220,2012-12-04 21:51:00
5:51 PM,66.0,51.1,59,30.06,10.0,SSW,6.9,-,N/A,,Overcast,210,2012-12-04 22:51:00
6:51 PM,66.0,51.1,59,30.06,10.0,SSW,12.7,20.7,N/A,,Overcast,210,2012-12-04 23:51:00
7:51 PM,66.0,50.0,56,30.06,10.0,SSW,11.5,18.4,N/A,,Scattered Clouds,210,2012-12-05 00:51:00
8:51 PM,59.0,55.9,90,30.10,10.0,West,9.2,-,0.03,Rain,Light Rain,260,2012-12-05 01:51:00
9:30 PM,51.8,50.0,94,30.14,6.0,NW,18.4,28.8,0.01,Rain,Light Rain,310,2012-12-05 02:30:00
9:37 PM,50.0,48.2,94,30.14,3.0,NNW,18.4,28.8,0.02,Rain,Rain,330,2012-12-05 02:37:00
9:43 PM,50.0,48.2,94,30.15,4.0,NNW,13.8,24.2,0.04,Rain,Light Rain,340,2012-12-05 02:43:00
9:51 PM,48.9,48.0,97,30.16,4.0,NNW,11.5,24.2,0.05,Rain,Light Rain,330,2012-12-05 02:51:00
10:47 PM,44.6,42.8,93,30.20,3.0,NNW,9.2,18.4,0.03,Rain,Rain,340,2012-12-05 03:47:00
10:51 PM,44.6,42.8,93,30.20,3.0,NNW,9.2,17.3,N/A,Rain,Rain,340,2012-12-05 03:51:00
11:51 PM,45.0,42.1,90,30.21,10.0,Calm,Calm,-,0.03,,Overcast,0,2012-12-05 04:51:00